2019-038B (44388 NORAD) Tracking and Keplerian Element Data

This shows tracking and keplerian element data for the satellite.

Feedback or suggestion? Click here.




ElementValue
Catalog44388
Name2019-038B
Epoch Orbit426
Epoch Day214.86091471
Epoch Year2019
RAAN176.4699
Inclination97.686
Eccentricity0.0023235
Argument of Perigee145.013
Mean Anonmoly215.2624
Mean Motion14.95967179
Decay Rate8.95E-06
L11 44388U 19038B 19214.86091471 .00000895 00000-0 84585-4 0 9997
L22 44388 97.6860 176.4699 0023235 145.0130 215.2624 14.95967179 4268

Live tracking and technical data element details for 2019-038B (NORAD 44388). 2019-038B can be tracked NOW for your location showing map with azimuth and elevation plus other details from your city location.

Track the satellite on the map from your city or location and see movement details for azimuth, elevation, latitude, longitude, range, height, and movement on the map or in text.







IsCatalogInMostPopularTable: catalog: 44388, numindb: 22
Update: records affected: 1



GetName: 44388 2019-038B

Hit Count: updated at: Thu, 12 Dec 2019 01:24:25 GMT